BEIDOU-3 M23 (C45)

Last updated on Thu Oct 09 2025 00:03:27 GMT+0000 (Coordinated Universal Time)

1 44543U 19061B 25281.30105446 .00000034 00000+0 00000+0 0 9993 2 44543 54.4016 191.1929 0005718 0.3063 199.1630 1.86229353 41101
UTC large
Height (km)
Speed (km/s)
/
Latitude / Longitude
Inclination (degrees)
Orbital Period (minutes)
Azimuth
Elevation
Range (km)
Doppler Factor

Next 0 passes for location: London (51.5072 / 0.1276)

Sorry there are no passes over London.